SVFLIR Weather Reports


Display with metric or nautical units.
time (UTC)temp
F
wind
direction
speed
MPH
gust
MPH
rain 1hr
in
rain 24hr
in
rain mn
in
humidity
%
barometer
mb
20210615003658 106 205 6.0 9.0 0.00 0.00 0.00
20210615003157 106 215 3.0 9.0 0.00 0.00 0.00
20210615002656 105 192 6.0 10.0 0.00 0.00 0.00
20210615002155 106 208 5.0 12.0 0.00 0.00 0.00
20210615001654 106 209 6.0 12.0 0.00 0.00 0.00
20210615001153 105 206 10.0 14.0 0.00 0.00 0.00
20210615000652 105 227 9.0 12.0 0.00 0.00 0.00
20210614235650 109 203 7.0 13.0 0.00 0.00 0.00
20210614235149 105 210 10.0 12.0 0.00 0.00 0.00
20210614234652 109 212 7.0 13.0 0.00 0.00 0.00
20210614234150 108 222 4.0 13.0 0.00 0.00 0.00
20210614233646 107 230 6.0 14.0 0.00 0.00 0.00
20210614233148 107 195 9.0 12.0 0.00 0.00 0.00
20210614232648 108 246 6.0 11.0 0.00 0.00 0.00
20210614232143 108 222 6.0 13.0 0.00 0.00 0.00
20210614231642 106 239 10.0 16.0 0.00 0.00 0.00
20210614231141 105 230 11.0 15.0 0.00 0.00 0.00
20210614230640 108 255 12.0 15.0 0.00 0.00 0.00
20210614230139 107 253 7.0 13.0 0.00 0.00 0.00
20210614225638 108 281 7.0 12.0 0.00 0.00 0.00
20210614225137 105 270 6.0 14.0 0.00 0.00 0.00
20210614224636 107 225 10.0 12.0 0.00 0.00 0.00
20210614224135 108 268 5.0 13.0 0.00 0.00 0.00
20210614223634 107 241 9.0 12.0 0.00 0.00 0.00
20210614223133 110 240 8.0 9.0 0.00 0.00 0.00
20210614222632 110 210 3.0 13.0 0.00 0.00 0.00
20210614222131 111 219 7.0 13.0 0.00 0.00 0.00
20210614221630 111 232 8.0 10.0 0.00 0.00 0.00
20210614221129 111 223 3.0 13.0 0.00 0.00 0.00
20210614220628 110 275 9.0 13.0 0.00 0.00 0.00
20210614220127 112 237 12.0 14.0 0.00 0.00 0.00
20210614215626 111 199 9.0 15.0 0.00 0.00 0.00
20210614215125 110 233 12.0 13.0 0.00 0.00 0.00
20210614214624 109 262 4.0 14.0 0.00 0.00 0.00
20210614214123 110 291 9.0 11.0 0.00 0.00 0.00
20210614213622 110 261 1.0 12.0 0.00 0.00 0.00
20210614213121 110 222 9.0 12.0 0.00 0.00 0.00
20210614212621 108 223 7.0 10.0 0.00 0.00 0.00
20210614212119 111 296 6.0 13.0 0.00 0.00 0.00
20210614211618 110 255 10.0 11.0 0.00 0.00 0.00
20210614211117 108 253 7.0 11.0 0.00 0.00 0.00
20210614210617 111 202 9.0 13.0 0.00 0.00 0.00
20210614210116 111 237 1.0 16.0 0.00 0.00 0.00
20210614205614 105 243 9.0 15.0 0.00 0.00 0.00
20210614205113 105 227 5.0 11.0 0.00 0.00 0.00
20210614204612 105 198 7.0 11.0 0.00 0.00 0.00
20210614204112 106 236 6.0 17.0 0.00 0.00 0.00
20210614203611 107 258 6.0 10.0 0.00 0.00 0.00
20210614203109 110 216 8.0 13.0 0.00 0.00 0.00
20210614202608 107 222 10.0 11.0 0.00 0.00 0.00
20210614202108 107 251 2.0 11.0 0.00 0.00 0.00
20210614201607 107 254 3.0 11.0 0.00 0.00 0.00
20210614201106 107 244 5.0 10.0 0.00 0.00 0.00
20210614200604 109 219 8.0 12.0 0.00 0.00 0.00
20210614200104 109 234 8.0 12.0 0.00 0.00 0.00
20210614195603 107 234 6.0 10.0 0.00 0.00 0.00
20210614195102 108 241 9.0 13.0 0.00 0.00 0.00
20210614194601 110 246 6.0 10.0 0.00 0.00 0.00
20210614194059 105 199 5.0 10.0 0.00 0.00 0.00
20210614193559 105 175 2.0 10.0 0.00 0.00 0.00
20210614193058 108 246 4.0 12.0 0.00 0.00 0.00
20210614192557 106 300 9.0 12.0 0.00 0.00 0.00
20210614192056 106 229 11.0 7.0 0.00 0.00 0.00
20210614191555 101 184 1.0 10.0 0.00 0.00 0.00
20210614191054 102 236 7.0 10.0 0.00 0.00 0.00
20210614190553 105 247 5.0 8.0 0.00 0.00 0.00
20210614190052 105 258 5.0 11.0 0.00 0.00 0.00
20210614185551 104 237 5.0 8.0 0.00 0.00 0.00
20210614185050 103 250 4.0 9.0 0.00 0.00 0.00
20210614184549 103 240 3.0 9.0 0.00 0.00 0.00
20210614183547 106 194 3.0 10.0 0.00 0.00 0.00
20210614183046 100 203 2.0 10.0 0.00 0.00 0.00
20210614182545 102 209 9.0 9.0 0.00 0.00 0.00
20210614182044 103 194 3.0 8.0 0.00 0.00 0.00
20210614181543 102 234 5.0 10.0 0.00 0.00 0.00
20210614181042 105 240 4.0 11.0 0.00 0.00 0.00
20210614180541 102 208 5.0 10.0 0.00 0.00 0.00
20210614180040 100 244 4.0 10.0 0.00 0.00 0.00
20210614175539 95 161 7.0 9.0 0.00 0.00 0.00
20210614175038 98 168 4.0 9.0 0.00 0.00 0.00
20210614174537 91 180 6.0 8.0 0.00 0.00 0.00
20210614174036 93 161 4.0 10.0 0.00 0.00 0.00
20210614173535 94 209 7.0 8.0 0.00 0.00 0.00
20210614173034 94 172 5.0 7.0 0.00 0.00 0.00
20210614172533 94 136 0.0 7.0 0.00 0.00 0.00
20210614172032 97 157 4.0 6.0 0.00 0.00 0.00
20210614171531 98 209 5.0 7.0 0.00 0.00 0.00
20210614171030 99 149 2.0 5.0 0.00 0.00 0.00
20210614170529 101 208 1.0 7.0 0.00 0.00 0.00
20210614170028 101 225 6.0 4.0 0.00 0.00 0.00
20210614165527 103 180 0.0 4.0 0.00 0.00 0.00
20210614165026 99 309 2.0 0.0 0.00 0.00 0.00
20210614164525 94 182 0.0 5.0 0.00 0.00 0.00
20210614164024 98 144 0.0 5.0 0.00 0.00 0.00
20210614163523 89 74 0.0 4.0 0.00 0.00 0.00
20210614163022 94 201 0.0 4.0 0.00 0.00 0.00
20210614162522 97 205 1.0 4.0 0.00 0.00 0.00
20210614162020 96 202 2.0 4.0 0.00 0.00 0.00
20210614161018 91 163 5.0 8.0 0.00 0.00 0.00
20210614160517 93 140 3.0 7.0 0.00 0.00 0.00
20210614160017 91 185 3.0 8.0 0.00 0.00 0.00
20210614155515 94 199 6.0 9.0 0.00 0.00 0.00
20210614155015 93 213 5.0 10.0 0.00 0.00 0.00
20210614154513 94 188 8.0 12.0 0.00 0.00 0.00
20210614153512 93 203 11.0 11.0 0.00 0.00 0.00
20210614153010 91 172 7.0 11.0 0.00 0.00 0.00
20210614152509 93 165 8.0 10.0 0.00 0.00 0.00
20210614152008 93 158 10.0 11.0 0.00 0.00 0.00
20210614151508 93 163 10.0 12.0 0.00 0.00 0.00
20210614151007 93 167 5.0 11.0 0.00 0.00 0.00
20210614150505 93 172 8.0 10.0 0.00 0.00 0.00
20210614150005 93 127 7.0 8.0 0.00 0.00 0.00
20210614145504 93 181 2.0 10.0 0.00 0.00 0.00
20210614145003 93 137 6.0 8.0 0.00 0.00 0.00
20210614144502 93 164 6.0 6.0 0.00 0.00 0.00
20210614144000 93 181 6.0 6.0 0.00 0.00 0.00
20210614143459 92 178 2.0 3.0 0.00 0.00 0.00
20210614142959 92 170 0.0 3.0 0.00 0.00 0.00
20210614142458 92 286 0.0 0.0 0.00 0.00 0.00
20210614141957 92 286 0.0 0.0 0.00 0.00 0.00
20210614141456 91 286 0.0 0.0 0.00 0.00 0.00
20210614140955 89 286 0.0 0.0 0.00 0.00 0.00
20210614140454 89 286 0.0 1.0 0.00 0.00 0.00
20210614135953 88 291 0.0 0.0 0.00 0.00 0.00
20210614135452 87 291 0.0 1.0 0.00 0.00 0.00
20210614134951 85 291 0.0 3.0 0.00 0.00 0.00
20210614134450 84 296 2.0 3.0 0.00 0.00 0.00
20210614133949 83 258 0.0 2.0 0.00 0.00 0.00
20210614133448 73 268 0.0 2.0 0.00 0.00 0.00
20210614132947 73 298 1.0 3.0 0.00 0.00 0.00
20210614132446 73 15 0.0 0.0 0.00 0.00 0.00
20210614131945 72 15 0.0 2.0 0.00 0.00 0.00
20210614131444 72 40 1.0 3.0 0.00 0.00 0.00
20210614130943 71 343 0.0 0.0 0.00 0.00 0.00
20210614130442 70 343 0.0 2.0 0.00 0.00 0.00
20210614125941 72 7 2.0 1.0 0.00 0.00 0.00
20210614125440 72 358 0.0 1.0 0.00 0.00 0.00
20210614124939 72 268 0.0 1.0 0.00 0.00 0.00
20210614124438 75 331 0.0 0.0 0.00 0.00 0.00
20210614123937 63 331 0.0 0.0 0.00 0.00 0.00
20210614123436 65 331 0.0 0.0 0.00 0.00 0.00
20210614122935 71 331 0.0 0.0 0.00 0.00 0.00
20210614122434 71 331 0.0 0.0 0.00 0.00 0.00
20210614121933 75 331 0.0 0.0 0.00 0.00 0.00
20210614121432 72 331 0.0 3.0 0.00 0.00 0.00
20210614120931 74 352 2.0 3.0 0.00 0.00 0.00
20210614120430 74 348 3.0 3.0 0.00 0.00 0.00
20210614115929 74 35 2.0 8.0 0.00 0.00 0.00
20210614115428 72 105 6.0 8.0 0.00 0.00 0.00
20210614114927 72 49 5.0 7.0 0.00 0.00 0.00
20210614114426 72 19 7.0 8.0 0.00 0.00 0.00
20210614113925 77 8 7.0 8.0 0.00 0.00 0.00
20210614113424 73 14 6.0 8.0 0.00 0.00 0.00
20210614112923 74 19 6.0 7.0 0.00 0.00 0.00
20210614112423 67 357 6.0 8.0 0.00 0.00 0.00
20210614111921 72 2 7.0 8.0 0.00 0.00 0.00
20210614111420 73 1 7.0 7.0 0.00 0.00 0.00
20210614110919 73 12 7.0 7.0 0.00 0.00 0.00
20210614110418 73 351 5.0 6.0 0.00 0.00 0.00
20210614105918 74 327 5.0 6.0 0.00 0.00 0.00
20210614105416 74 313 5.0 6.0 0.00 0.00 0.00
20210614104915 75 305 5.0 6.0 0.00 0.00 0.00
20210614104415 74 300 6.0 6.0 0.00 0.00 0.00
20210614103914 74 303 5.0 6.0 0.00 0.00 0.00
20210614103413 75 302 4.0 6.0 0.00 0.00 0.00
20210614102911 72 305 5.0 7.0 0.00 0.00 0.00
20210614102410 73 295 6.0 5.0 0.00 0.00 0.00
20210614101909 70 329 3.0 5.0 0.00 0.00 0.00
20210614101409 73 309 3.0 4.0 0.00 0.00 0.00
20210614100908 75 336 2.0 4.0 0.00 0.00 0.00
20210614100406 72 330 3.0 4.0 0.00 0.00 0.00
20210614095905 71 329 3.0 5.0 0.00 0.00 0.00
20210614095405 71 298 5.0 6.0 0.00 0.00 0.00
20210614094904 73 302 5.0 5.0 0.00 0.00 0.00
20210614094403 74 306 1.0 3.0 0.00 0.00 0.00
20210614093901 71 316 1.0 4.0 0.00 0.00 0.00
20210614093401 72 354 3.0 5.0 0.00 0.00 0.00
20210614092900 73 324 4.0 5.0 0.00 0.00 0.00
20210614092359 72 306 4.0 5.0 0.00 0.00 0.00
20210614091858 73 303 5.0 5.0 0.00 0.00 0.00
20210614091357 75 309 4.0 5.0 0.00 0.00 0.00
20210614090856 75 310 4.0 5.0 0.00 0.00 0.00
20210614090355 72 305 3.0 4.0 0.00 0.00 0.00
20210614085854 74 352 2.0 2.0 0.00 0.00 0.00
20210614085353 73 1 0.0 3.0 0.00 0.00 0.00
20210614084852 70 12 2.0 3.0 0.00 0.00 0.00
20210614084351 75 350 1.0 5.0 0.00 0.00 0.00
20210614083850 76 29 4.0 6.0 0.00 0.00 0.00
20210614083349 74 45 4.0 5.0 0.00 0.00 0.00
20210614082848 73 5 0.0 2.0 0.00 0.00 0.00
20210614082347 73 338 1.0 5.0 0.00 0.00 0.00
20210614081846 74 305 5.0 6.0 0.00 0.00 0.00
20210614081345 75 299 6.0 7.0 0.00 0.00 0.00
20210614080844 74 292 6.0 6.0 0.00 0.00 0.00
20210614080343 74 289 5.0 6.0 0.00 0.00 0.00
20210614075842 74 299 5.0 5.0 0.00 0.00 0.00
20210614075341 76 303 4.0 4.0 0.00 0.00 0.00
20210614074840 75 309 3.0 4.0 0.00 0.00 0.00
20210614074339 75 343 4.0 4.0 0.00 0.00 0.00
20210614073838 76 351 2.0 3.0 0.00 0.00 0.00
20210614073337 76 300 0.0 0.0 0.00 0.00 0.00
20210614072836 79 300 0.0 0.0 0.00 0.00 0.00
20210614072335 79 300 0.0 0.0 0.00 0.00 0.00
20210614071834 79 300 0.0 0.0 0.00 0.00 0.00
20210614071333 74 300 0.0 0.0 0.00 0.00 0.00
20210614070832 75 300 0.0 1.0 0.00 0.00 0.00
20210614070331 76 300 0.0 3.0 0.00 0.00 0.00
20210614065830 76 312 2.0 4.0 0.00 0.00 0.00
20210614065329 77 302 4.0 4.0 0.00 0.00 0.00
20210614064829 77 313 2.0 3.0 0.00 0.00 0.00
20210614064327 78 341 2.0 3.0 0.00 0.00 0.00
20210614063826 80 299 2.0 2.0 0.00 0.00 0.00
20210614063325 80 88 2.0 5.0 0.00 0.00 0.00
20210614062824 78 94 4.0 5.0 0.00 0.00 0.00
20210614062324 77 87 2.0 5.0 0.00 0.00 0.00
20210614061822 78 90 4.0 6.0 0.00 0.00 0.00
20210614061321 79 16 2.0 2.0 0.00 0.00 0.00
20210614060820 75 8 1.0 3.0 0.00 0.00 0.00
20210614060319 76 302 0.0 2.0 0.00 0.00 0.00
20210614055819 80 289 0.0 2.0 0.00 0.00 0.00
20210614055317 78 19 1.0 3.0 0.00 0.00 0.00
20210614054816 76 310 2.0 2.0 0.00 0.00 0.00
20210614054315 74 296 0.0 2.0 0.00 0.00 0.00
20210614053815 77 307 2.0 3.0 0.00 0.00 0.00
20210614053314 74 334 2.0 6.0 0.00 0.00 0.00
20210614052812 77 299 4.0 4.0 0.00 0.00 0.00
20210614052311 82 292 4.0 4.0 0.00 0.00 0.00
20210614051811 80 317 1.0 2.0 0.00 0.00 0.00
20210614051310 84 296 2.0 5.0 0.00 0.00 0.00
20210614050809 85 312 3.0 5.0 0.00 0.00 0.00
20210614050307 87 326 1.0 4.0 0.00 0.00 0.00
20210614045806 87 316 4.0 4.0 0.00 0.00 0.00
20210614045306 80 7 0.0 2.0 0.00 0.00 0.00
20210614044805 82 50 1.0 4.0 0.00 0.00 0.00
20210614044304 81 60 2.0 2.0 0.00 0.00 0.00
20210614043802 83 50 1.0 5.0 0.00 0.00 0.00
20210614043301 83 61 5.0 6.0 0.00 0.00 0.00
20210614042801 85 29 2.0 3.0 0.00 0.00 0.00
20210614042300 85 9 0.0 0.0 0.00 0.00 0.00
20210614041759 85 9 0.0 0.0 0.00 0.00 0.00
20210614041257 87 9 0.0 1.0 0.00 0.00 0.00
20210614040757 88 9 0.0 3.0 0.00 0.00 0.00
20210614040256 91 16 0.0 3.0 0.00 0.00 0.00
20210614035755 92 78 2.0 3.0 0.00 0.00 0.00
20210614035254 94 102 1.0 4.0 0.00 0.00 0.00
20210614034753 94 105 3.0 4.0 0.00 0.00 0.00
20210614034252 95 104 4.0 3.0 0.00 0.00 0.00
20210614033751 96 98 3.0 3.0 0.00 0.00 0.00
20210614033250 95 161 0.0 6.0 0.00 0.00 0.00
20210614032749 97 227 2.0 5.0 0.00 0.00 0.00
20210614032248 99 233 3.0 5.0 0.00 0.00 0.00
20210614031747 101 246 5.0 5.0 0.00 0.00 0.00
20210614031246 103 230 3.0 5.0 0.00 0.00 0.00
20210614030745 104 232 3.0 5.0 0.00 0.00 0.00
20210614030244 104 236 4.0 6.0 0.00 0.00 0.00
20210614025743 104 244 5.0 8.0 0.00 0.00 0.00
20210614025242 105 240 6.0 9.0 0.00 0.00 0.00
20210614024741 106 257 6.0 9.0 0.00 0.00 0.00
20210614024240 106 246 5.0 9.0 0.00 0.00 0.00
20210614023739 106 236 6.0 9.0 0.00 0.00 0.00
20210614023238 106 247 7.0 9.0 0.00 0.00 0.00
20210614022737 107 240 7.0 12.0 0.00 0.00 0.00
20210614022236 108 255 8.0 10.0 0.00 0.00 0.00
20210614021735 108 236 8.0 11.0 0.00 0.00 0.00
20210614021234 108 247 9.0 10.0 0.00 0.00 0.00
20210614020733 103 244 6.0 8.0 0.00 0.00 0.00
20210614020232 100 254 6.0 11.0 0.00 0.00 0.00
20210614015731 103 246 6.0 12.0 0.00 0.00 0.00
20210614015230 100 247 7.0 11.0 0.00 0.00 0.00
20210614014729 102 246 5.0 11.0 0.00 0.00 0.00
20210614014228 106 254 9.0 16.0 0.00 0.00 0.00
20210614013727 105 250 10.0 13.0 0.00 0.00 0.00
20210614013226 103 250 11.0 12.0 0.00 0.00 0.00
20210614012725 104 246 8.0 14.0 0.00 0.00 0.00
20210614012224 106 239 10.0 13.0 0.00 0.00 0.00
20210614011723 107 267 5.0 15.0 0.00 0.00 0.00
20210614011222 108 246 11.0 16.0 0.00 0.00 0.00
20210614010721 108 250 9.0 16.0 0.00 0.00 0.00
20210614010220 108 264 7.0 12.0 0.00 0.00 0.00
20210614005720 106 230 9.0 13.0 0.00 0.00 0.00
20210614005218 105 226 9.0 15.0 0.00 0.00 0.00
20210614004717 105 244 12.0 13.0 0.00 0.00 0.00
20210614004216 105 247 12.0 14.0 0.00 0.00 0.00